Regional Weather Roundup
Issued by NWS

Home | Current Version | Previous Version | Text Only | Print | Product List | Glossary Off
Versions: 1 2 3 4 5 6 7 8 9 10 11 12 13 14 15 16 17 18 19 20 21 22 23 24 25 26 27 28 29 30 31 32 33 34 35 36 37 38 39 40 41 42 43 44 45 46 47 48 49 50

000
ASUS43 KLMK 251302
RWRKY
KENTUCKY REGIONAL WEATHER ROUNDUP
NATIONAL WEATHER SERVICE LOUISVILLE KY
900 AM EDT THU MAY 25 2017

NOTE "FAIR" INDICATES FEW OR NO CLOUDS BELOW 12,000 FEET
WITH NO SIGNIFICANT WEATHER AND/OR OBSTRUCTIONS TO VISIBILITY.

KYZ001>023-026-027-061>063-070>075-251400-
WESTERN AND SOUTH CENTRAL KENTUCKY

CITY           SKY/WX    TMP DP  RH WIND       PRES   REMARKS
PADUCAH        MOSUNNY   60  51  72 W10       29.69R
HENDERSON      CLOUDY    58  54  86 W12       29.63R
OWENSBORO      CLOUDY    59  54  83 W15       29.61R
HOPKINSVILLE   CLOUDY    57  55  91 W13       29.66R
BOWLING GREEN  CLOUDY    58  55  90 W12       29.63R
GLASGOW        NOT AVBL
$$

KYZ024-025-028>034-038-045-046-053-251400-
NORTH CENTRAL KENTUCKY

CITY           SKY/WX    TMP DP  RH WIND       PRES   REMARKS
LOUISVILLE/SDF CLOUDY    61  56  83 W22       29.50S
LOUISVILLE/LOU CLOUDY    60  57  89 W10G21    29.50S
FORT KNOX      LGT RAIN  57  55  94 W10       29.53R
$$

KYZ035>037-039>044-047>052-055>060-089>105-251400-
NORTHEAST KENTUCKY

CITY           SKY/WX    TMP DP  RH WIND       PRES   REMARKS
LEXINGTON      LGT RAIN  57  54  89 SW12      29.50S
COVINGTON      RAIN      57  56  96 W10       29.41R FOG
FRANKFORT      LGT RAIN  58  54  86 SW13      29.47S FOG
$$

KYZ054-064>069-076>088-106>120-251400-
SOUTHEAST KENTUCKY

CITY           SKY/WX    TMP DP  RH WIND       PRES   REMARKS
JACKSON        LGT RAIN  53  52  96 CALM      29.55R FOG
LONDON         CLOUDY    53  50  89 SW12      29.58R
SOMERSET       NOT AVBL
MIDDLESBORO    CLOUDY    54  50  87 S8        29.62S
MONTICELLO     LGT RAIN  55  53  93 W17G26    29.62R FOG
$$





USA.gov is the U.S. government's official web portal to all federal, state and local government web resources and services.